KA6ETS Weather Reports


time (UTC)temp
C
wind
direction
speed
KPH
gust
KPH
rain 1hr
cm
rain 24hr
cm
rain mn
cm
humidity
%
barometer
mb
20260506131928 13 323 6.4 19.3 0.00 0.00 0.00 78 1011.7
20260506131429 13 331 6.4 19.3 0.00 0.00 0.00 78 1011.7
20260506130926 13 344 4.8 14.5 0.00 0.00 0.00 78 1011.6
20260506130426 13 317 4.8 17.7 0.00 0.00 0.00 78 1011.9
20260506125927 13 319 6.4 17.7 0.00 0.00 0.00 78 1011.8
20260506125428 13 323 8.0 19.3 0.00 0.00 0.00 78 1011.8
20260506124926 13 5 9.7 20.9 0.00 0.00 0.00 77 1011.6
20260506124424 13 5 8.0 20.9 0.00 0.00 0.00 77 1011.5
20260506123924 13 336 8.0 20.9 0.00 0.00 0.00 77 1011.4
20260506123645 13 330 9.7 19.3 0.00 0.00 0.00 76 1011.4
20260506122924 13 304 8.0 19.3 0.00 0.00 0.00 76 1011.3
20260506122426 13 22 6.4 16.1 0.00 0.00 0.00 76 1011.2
20260506121925 13 320 8.0 22.5 0.00 0.00 0.00 75 1011.2
20260506121426 13 330 9.7 22.5 0.00 0.00 0.00 75 1011.3
20260506120924 13 317 11.3 24.1 0.00 0.00 0.00 75 1011.3
20260506120424 13 321 11.3 24.1 0.00 0.00 0.00 74 1011.3
20260506120148 13 294 9.7 19.3 0.00 0.00 0.00 74 1011.2
20260506115420 13 281 8.0 19.3 0.00 0.00 0.00 74 1011.0
20260506114921 13 299 8.0 17.7 0.00 0.00 0.00 74 1010.9
20260506114420 13 319 6.4 17.7 0.00 0.00 0.00 74 1010.8
20260506113921 13 5 6.4 16.1 0.00 0.00 0.00 74 1010.7
20260506113420 13 322 8.0 17.7 0.00 0.00 0.00 74 1010.4
20260506112921 14 344 11.3 27.4 0.00 0.00 0.00 73 1010.6
20260506112420 14 346 9.7 27.4 0.00 0.00 0.00 73 1010.4
20260506111921 14 286 11.3 24.1 0.00 0.00 0.00 73 1010.6
20260506111423 14 327 9.7 24.1 0.00 0.00 0.00 73 1010.2
20260506110915 14 255 8.0 17.7 0.00 0.00 0.00 73 1010.1
20260506110416 15 321 4.8 16.1 0.00 0.00 0.00 73 1010.1
20260506105918 15 330 6.4 17.7 0.00 0.00 0.00 73 1010.0
20260506105417 15 0 4.8 17.7 0.00 0.00 0.00 73 1010.0
20260506105146 15 19 4.8 12.9 0.00 0.00 0.00 73 1009.6
20260506104416 15 30 6.4 12.9 0.00 0.00 0.00 73 1009.6
20260506103917 15 59 4.8 12.9 0.00 0.00 0.00 72 1009.5
20260506103415 15 342 4.8 16.1 0.00 0.00 0.00 72 1009.5
20260506103400 15 9 6.4 16.1 0.00 0.00 0.00 72 1009.4
20260506102417 15 311 6.4 16.1 0.00 0.00 0.00 72 1009.4
20260506101916 15 336 4.8 16.1 0.00 0.00 0.00 72 1009.1
20260506101416 15 321 4.8 14.5 0.00 0.00 0.00 72 1009.1
20260506101139 15 355 4.8 14.5 0.00 0.00 0.00 73 1008.9
20260506100416 15 30 4.8 14.5 0.00 0.00 0.00 72 1008.8
20260506095916 15 336 4.8 14.5 0.00 0.00 0.00 73 1009.0
20260506095639 15 5 3.2 12.9 0.00 0.00 0.00 72 1008.9
20260506094917 15 28 3.2 12.9 0.00 0.00 0.00 72 1008.8
20260506094416 15 348 3.2 12.9 0.00 0.00 0.00 72 1008.8
20260506093916 15 322 4.8 12.9 0.00 0.00 0.00 72 1008.8
20260506093641 15 22 4.8 9.7 0.00 0.00 0.00 72 1008.9
20260506092919 15 333 4.8 14.5 0.00 0.00 0.00 72 1008.9
20260506092635 15 0 4.8 14.5 0.00 0.00 0.00 72 1008.9
20260506091917 15 355 4.8 11.3 0.00 0.00 0.00 72 1008.7
20260506091415 15 323 4.8 12.9 0.00 0.00 0.00 72 1008.6
20260506090916 15 348 4.8 12.9 0.00 0.00 0.00 73 1008.6
20260506090416 15 319 4.8 14.5 0.00 0.00 0.00 73 1008.5
20260506085915 15 305 4.8 17.7 0.00 0.00 0.00 73 1008.6
20260506085414 15 323 4.8 17.7 0.00 0.00 0.00 73 1008.5
20260506085131 16 347 3.2 11.3 0.00 0.00 0.00 73 1008.4
20260506084412 16 16 3.2 12.9 0.00 0.00 0.00 73 1008.2
20260506083913 16 308 1.6 12.9 0.00 0.00 0.00 73 1008.3
20260506083412 16 13 1.6 4.8 0.00 0.00 0.00 73 1008.0
20260506083403 16 355 1.6 4.8 0.00 0.00 0.00 73 1008.0
20260506082643 16 23 1.6 8.0 0.00 0.00 0.00 73 1007.9
20260506081911 16 24 1.6 8.0 0.00 0.00 0.00 73 1008.0
20260506081633 16 0 1.6 8.0 0.00 0.00 0.00 73 1007.9
20260506080912 16 355 1.6 8.0 0.00 0.00 0.00 74 1008.1
20260506080412 16 348 1.6 6.4 0.00 0.00 0.00 74 1008.0
20260506073410 16 325 3.2 12.9 0.00 0.00 0.00 74 1008.3
20260506072910 17 15 3.2 14.5 0.00 0.00 0.00 74 1008.3
20260506072407 17 344 6.4 17.7 0.00 0.00 0.00 74 1008.2
20260506071907 17 315 6.4 17.7 0.00 0.00 0.00 74 1008.2
20260506071408 17 338 6.4 16.1 0.00 0.00 0.00 74 1008.2
20260506071126 17 17 6.4 16.1 0.00 0.00 0.00 74 1008.2
20260506070406 17 321 6.4 16.1 0.00 0.00 0.00 74 1008.1
20260506062403 17 340 6.4 14.5 0.00 0.00 0.00 74 1008.1
20260506061902 17 329 6.4 14.5 0.00 0.00 0.00 74 1008.2
20260506061401 18 345 4.8 12.9 0.00 0.00 0.00 74 1008.0
20260506060856 18 334 4.8 12.9 0.00 0.00 0.00 74 1008.2
20260506060349 18 313 4.8 12.9 0.00 0.00 0.00 74 1008.1
20260506051249 19 50 9.7 20.9 0.00 0.00 0.00 73 1007.8
20260506050744 19 310 8.0 22.5 0.00 0.00 0.00 73 1007.7
20260506050237 20 327 8.0 22.5 0.00 0.00 0.00 73 1007.6
20260506044720 20 316 9.7 20.9 0.00 0.00 0.00 72 1007.7
20260506044434 20 304 9.7 25.7 0.00 0.00 0.00 72 1007.6
20260506043707 21 0 8.0 25.7 0.00 0.00 0.00 72 1007.6
20260506043201 21 307 6.4 17.7 0.00 0.00 0.00 72 1007.4
20260506042656 21 10 6.4 14.5 0.00 0.00 0.00 72 1007.3
20260506042156 21 0 8.0 16.1 0.00 0.00 0.00 72 1007.3
20260506041655 21 345 6.4 17.7 0.00 0.00 0.00 71 1007.2
20260506041155 21 319 8.0 17.7 0.00 0.00 0.00 72 1007.2
20260506040655 21 336 6.4 17.7 0.00 0.00 0.00 71 1007.1
20260506040157 22 342 6.4 16.1 0.00 0.00 0.00 71 1007.1
20260506035656 22 332 6.4 16.1 0.00 0.00 0.00 72 1007.3
20260506035416 22 331 6.4 14.5 0.00 0.00 0.00 72 1007.2
20260506034655 22 346 6.4 20.9 0.00 0.00 0.00 71 1007.1
20260506034155 22 332 6.4 20.9 0.00 0.00 0.00 71 1007.0
20260506033655 22 338 4.8 16.1 0.00 0.00 0.00 71 1006.9
20260506033156 23 21 6.4 17.7 0.00 0.00 0.00 70 1006.9
20260506032655 23 350 8.0 24.1 0.00 0.00 0.00 70 1006.9
20260506032153 23 0 8.0 24.1 0.00 0.00 0.00 69 1006.8
20260506031654 23 351 6.4 12.9 0.00 0.00 0.00 69 1006.8
20260506031152 23 323 6.4 16.1 0.00 0.00 0.00 69 1006.7
20260506030650 23 315 8.0 16.1 0.00 0.00 0.00 69 1006.5
20260506030150 23 297 8.0 16.1 0.00 0.00 0.00 69 1006.3
20260506025643 23 329 8.0 19.3 0.00 0.00 0.00 69 1006.0
20260506025137 23 22 8.0 19.3 0.00 0.00 0.00 69 1006.0
20260506024856 23 317 8.0 14.5 0.00 0.00 0.00 69 1005.9
20260506024125 24 345 6.4 12.9 0.00 0.00 0.00 69 1005.7
20260506023619 24 334 6.4 12.9 0.00 0.00 0.00 69 1005.4
20260506023113 24 314 4.8 11.3 0.00 0.00 0.00 69 1005.3
20260506022607 24 342 4.8 12.9 0.00 0.00 0.00 69 1005.0
20260506022107 25 338 4.8 14.5 0.00 0.00 0.00 69 1004.9
20260506021607 25 321 6.4 14.5 0.00 0.00 0.00 69 1004.7
20260506021108 25 345 8.0 19.3 0.00 0.00 0.00 68 1004.9
20260506020609 25 327 8.0 19.3 0.00 0.00 0.00 68 1004.9
20260506020106 26 326 6.4 14.5 0.00 0.00 0.00 68 1004.4
20260506015605 26 329 4.8 14.5 0.00 0.00 0.00 69 1004.5
20260506015105 27 165 4.8 11.3 0.00 0.00 0.00 74 1004.5
20260506014605 27 152 4.8 11.3 0.00 0.00 0.00 74 1004.2
20260506014106 27 151 4.8 11.3 0.00 0.00 0.00 74 1004.2
20260506013607 27 173 6.4 16.1 0.00 0.00 0.00 73 1004.2
20260506013101 27 167 6.4 16.1 0.00 0.00 0.00 73 1004.3
20260506012602 27 142 4.8 12.9 0.00 0.00 0.00 73 1004.5
20260506012101 27 148 3.2 11.3 0.00 0.00 0.00 74 1004.4
20260506011601 27 184 4.8 11.3 0.00 0.00 0.00 73 1004.0
20260506011544 27 189 4.8 12.9 0.00 0.00 0.00 73 1003.7
20260506010602 27 165 6.4 12.9 0.00 0.00 0.00 73 1003.4
20260506010104 27 164 4.8 12.9 0.00 0.00 0.00 73 1003.7
20260506005602 27 190 8.0 16.1 0.00 0.00 0.00 73 1003.9
20260506005102 27 173 9.7 17.7 0.00 0.00 0.00 72 1003.8
20260506004557 27 167 8.0 20.9 0.00 0.00 0.00 72 1003.8
20260506004058 27 157 6.4 20.9 0.00 0.00 0.00 72 1003.8
20260506003557 27 209 6.4 12.9 0.00 0.00 0.00 72 1003.9
20260506003057 27 240 4.8 11.3 0.00 0.00 0.00 72 1003.8
20260506002556 27 136 6.4 24.1 0.00 0.00 0.00 72 1003.5
20260506002057 27 185 11.3 27.4 0.00 0.00 0.00 71 1003.4
20260506001558 28 165 11.3 27.4 0.00 0.00 0.00 71 1003.2
20260506001057 28 138 11.3 22.5 0.00 0.00 0.00 71 1003.1
20260506000557 28 163 11.3 20.9 0.00 0.00 0.00 70 1003.0
20260506000057 28 132 12.9 20.9 0.00 0.00 0.00 70 1003.0
20260505235557 28 192 11.3 22.5 0.00 0.00 0.00 69 1002.8
20260505235057 28 148 9.7 22.5 0.00 0.00 0.00 69 1002.8
20260505234816 28 138 11.3 20.9 0.00 0.00 0.00 69 1002.8
20260505234054 28 117 12.9 25.7 0.00 0.00 0.00 68 1003.0
20260505233556 28 169 14.5 25.7 0.00 0.00 0.00 68 1003.0
20260505233055 29 167 14.5 25.7 0.00 0.00 0.00 67 1002.9
20260505232555 29 130 14.5 27.4 0.00 0.00 0.00 66 1002.9
20260505232055 29 127 14.5 29.0 0.00 0.00 0.00 67 1002.8
20260505231548 30 142 14.5 29.0 0.00 0.00 0.00 66 1002.9
20260505231042 30 130 14.5 27.4 0.00 0.00 0.00 65 1002.9
20260505230541 30 155 14.5 22.5 0.00 0.00 0.00 64 1002.8
20260505230039 31 140 14.5 24.1 0.00 0.00 0.00 64 1002.6
20260505225539 31 177 12.9 24.1 0.00 0.00 0.00 64 1002.5
20260505225040 31 136 12.9 22.5 0.00 0.00 0.00 64 1002.5
20260505224538 31 134 12.9 22.5 0.00 0.00 0.00 64 1002.6
20260505224038 31 153 12.9 22.5 0.00 0.00 0.00 64 1002.5
20260505223537 31 147 12.9 27.4 0.00 0.00 0.00 63 1002.3
20260505223037 31 131 12.9 27.4 0.00 0.00 0.00 62 1002.3
20260505222534 31 157 11.3 24.1 0.00 0.00 0.00 62 1002.3
20260505222034 31 113 11.3 19.3 0.00 0.00 0.00 61 1002.3
20260505221535 31 117 11.3 22.5 0.00 0.00 0.00 62 1002.4
20260505221034 31 127 12.9 22.5 0.00 0.00 0.00 62 1002.4
20260505220736 31 128 11.3 22.5 0.00 0.00 0.00 61 1002.4
20260505220729 31 126 11.3 22.5 0.00 0.00 0.00 62 1002.3
20260505215753 31 106 11.3 22.5 0.00 0.00 0.00 61 1002.5
20260505215026 31 142 12.9 22.5 0.00 0.00 0.00 61 1002.4
20260505214520 31 152 12.9 22.5 0.00 0.00 0.00 60 1002.5
20260505214014 31 130 11.3 27.4 0.00 0.00 0.00 61 1002.5
20260505213508 31 149 11.3 27.4 0.00 0.00 0.00 60 1002.6
20260505213001 31 161 12.9 24.1 0.00 0.00 0.00 60 1002.6
20260505212459 31 157 12.9 22.5 0.00 0.00 0.00 59 1002.7
20260505211959 32 195 12.9 24.1 0.00 0.00 0.00 60 1002.8
20260505211459 32 207 11.3 24.1 0.00 0.00 0.00 59 1002.9
20260505210957 32 140 11.3 20.9 0.00 0.00 0.00 60 1002.8
20260505210457 31 150 11.3 20.9 0.00 0.00 0.00 61 1002.7
20260505210221 31 193 11.3 19.3 0.00 0.00 0.00 61 1002.9
20260505205455 31 171 11.3 20.9 0.00 0.00 0.00 61 1002.9
20260505204954 31 132 11.3 22.5 0.00 0.00 0.00 60 1003.0
20260505204455 31 142 12.9 22.5 0.00 0.00 0.00 60 1003.0
20260505203952 31 166 14.5 27.4 0.00 0.00 0.00 60 1003.1
20260505203658 31 153 12.9 27.4 0.00 0.00 0.00 60 1003.3
20260505203651 31 147 12.9 27.4 0.00 0.00 0.00 59 1003.1
20260505202453 31 177 12.9 27.4 0.00 0.00 0.00 60 1003.3
20260505201951 31 213 12.9 25.7 0.00 0.00 0.00 59 1003.4
20260505201451 31 142 12.9 27.4 0.00 0.00 0.00 63 1003.4
20260505200950 31 184 12.9 27.4 0.00 0.00 0.00 62 1003.4
20260505200445 30 182 14.5 27.4 0.00 0.00 0.00 61 1003.4
20260505195938 31 209 12.9 27.4 0.00 0.00 0.00 61 1003.5
20260505195432 30 184 12.9 30.6 0.00 0.00 0.00 62 1003.4
20260505194928 30 161 14.5 30.6 0.00 0.00 0.00 63 1003.5
20260505194422 30 180 14.5 29.0 0.00 0.00 0.00 63 1003.5
20260505193914 30 150 12.9 29.0 0.00 0.00 0.00 63 1003.6
20260505193408 30 173 12.9 22.5 0.00 0.00 0.00 63 1003.6
20260505192902 30 173 12.9 24.1 0.00 0.00 0.00 64 1003.6
20260505192357 30 152 14.5 27.4 0.00 0.00 0.00 64 1003.6
20260505191850 30 150 16.1 29.0 0.00 0.00 0.00 64 1003.6
20260505191344 30 186 14.5 29.0 0.00 0.00 0.00 64 1003.7
20260505190838 29 159 14.5 29.0 0.00 0.00 0.00 66 1003.8
20260505190332 29 165 14.5 29.0 0.00 0.00 0.00 66 1003.8
20260505185827 29 134 14.5 27.4 0.00 0.00 0.00 65 1003.9
20260505185320 29 153 12.9 27.4 0.00 0.00 0.00 66 1003.9
20260505184814 29 196 14.5 27.4 0.00 0.00 0.00 67 1003.9
20260505184308 28 176 14.5 27.4 0.00 0.00 0.00 66 1004.0
20260505183804 28 171 12.9 29.0 0.00 0.00 0.00 67 1004.1
20260505183256 28 126 12.9 29.0 0.00 0.00 0.00 67 1004.1
20260505182751 28 156 12.9 29.0 0.00 0.00 0.00 67 1003.9
20260505182504 28 150 12.9 29.0 0.00 0.00 0.00 66 1004.1
20260505182002 28 181 14.5 22.5 0.00 0.00 0.00 67 1004.1
20260505181231 28 152 12.9 25.7 0.00 0.00 0.00 68 1004.0
20260505180945 28 150 12.9 25.7 0.00 0.00 0.00 67 1004.1
20260505180220 28 133 14.5 25.7 0.00 0.00 0.00 67 1004.2
20260505175940 28 120 16.1 25.7 0.00 0.00 0.00 67 1004.1
20260505175434 28 179 14.5 27.4 0.00 0.00 0.00 67 1004.0
20260505174702 28 187 14.5 32.2 0.00 0.00 0.00 66 1004.2
20260505174422 28 152 14.5 32.2 0.00 0.00 0.00 67 1004.1
20260505173651 28 163 14.5 30.6 0.00 0.00 0.00 67 1004.0
20260505173408 28 206 14.5 30.6 0.00 0.00 0.00 67 1004.0
20260505172638 27 196 14.5 30.6 0.00 0.00 0.00 67 1004.0
20260505172132 27 213 14.5 24.1 0.00 0.00 0.00 68 1004.1
20260505171627 28 109 14.5 37.0 0.00 0.00 0.00 67 1004.2
20260505171120 28 156 16.1 37.0 0.00 0.00 0.00 67 1004.2
20260505171051 27 188 16.1 35.4 0.00 0.00 0.00 68 1004.3
20260505170109 27 127 14.5 35.4 0.00 0.00 0.00 70 1004.3
20260505165602 27 141 14.5 29.0 0.00 0.00 0.00 70 1004.2
20260505165317 26 165 14.5 29.0 0.00 0.00 0.00 71 1004.3
20260505164550 26 212 14.5 27.4 0.00 0.00 0.00 71 1004.4
20260505164045 26 184 14.5 30.6 0.00 0.00 0.00 71 1004.4
20260505163538 26 146 14.5 30.6 0.00 0.00 0.00 70 1004.1
20260505163255 27 166 12.9 29.0 0.00 0.00 0.00 70 1004.1
20260505162527 26 144 14.5 30.6 0.00 0.00 0.00 71 1004.2
20260505162021 26 109 14.5 29.0 0.00 0.00 0.00 71 1004.0
20260505161515 26 204 12.9 25.7 0.00 0.00 0.00 72 1004.1
20260505161008 26 134 14.5 27.4 0.00 0.00 0.00 72 1004.2
20260505160954 26 155 16.1 29.0 0.00 0.00 0.00 73 1004.1
20260505160230 26 207 16.1 30.6 0.00 0.00 0.00 73 1004.0
20260505153008 25 149 16.1 41.8 0.00 0.00 0.00 75 1004.1
20260505152509 25 198 17.7 41.8 0.00 0.00 0.00 76 1004.0
20260505152009 25 193 16.1 33.8 0.00 0.00 0.00 77 1004.0
20260505151509 24 148 14.5 29.0 0.00 0.00 0.00 78 1004.1
20260505151009 24 188 14.5 25.7 0.00 0.00 0.00 78 1004.1
20260505150509 23 148 12.9 32.2 0.00 0.00 0.00 79 1004.2
20260505140454 22 158 11.3 24.1 0.00 0.00 0.00 82 1004.1